Weather in Kasnya

Russia / Smolensk Oblast     55°23′52″N   34°19′08″E
temp.,
°C
wind,
m/s
gust,
m/s
humid.,
%
clouds,
%
prec.,
mm/h
press.,
hPa
HPBL,
m
18 may, tue
tue1800:00+16ese414905 0.0 1006418
03:00+16se4129385 0.0 1005344
06:00+17se5138976 0.0 1005394
09:00+21se597695 0.0 1005494
12:00+24sse586029 0.0 10051388
15:00+26se613487 0.1 10042828
18:00+23ese61157100 0.0 10031125
21:00+19e5157279 0.0 1003696
19 may, wed
wed1900:00+17se512865 0.1 1003528
03:00+14se3109391 0.1 1003295
06:00+14se4109293 0.0 1003393
09:00+17sse697655 0.0 1004898
12:00+19sse696899 0.3 10051407
15:00+20se696698 0.6 10061536
18:00+18sse4775100 0.7 1005895
21:00+14se3591100 1.4 100693
20 may, thu
thu2000:00+13sse239583 0.3 100556
03:00+12ne119743 0.8 100411
06:00+13e3997100 0.5 1002306
09:00+15se698391 0.8 10021010
12:00+12ese61189100 0.3 1002829
15:00+14se5986100 1.8 1001774
18:00+12sse259674 1.4 1002379
21:00+10w51097100 1.6 1004513
21 may, fri
fri2100:00+9wnw51196100 0.1 1007817
03:00+9wnw51094100 0.4 1010749
06:00+8nw41293100 0.0 1012626
09:00+12wnw477631 0.0 1014819
12:00+16wnw565043 0.1 10141599
15:00+17wnw454599 0.1 10141816
18:00+17w2454100 0.0 10141329
21:00+11w367890 0.0 101792
22 may, sat
sat2200:00+8w238073 0.0 101846
03:00+7wnw11850 0.0 101810
06:00+8nnw01810 0.0 101922
09:00+15e11570 0.0 1018503
12:00+17se34506 0.0 10181488
15:00+20s344482 0.0 10172220
18:00+16sse377090 0.0 1017264
21:00+12sse388515 0.0 1017166